owner,sensor,date,latitude,longitude,vertical_datum,mass_concentration_of_oxygen_in_sea_water,qcFlag 
DISL,ioos:station:DISL:BSCA:1,2017-02-01T00:00:00Z,30.3288,-87.8293,1.889,11.03,1111122 
DISL,ioos:station:DISL:BSCA:1,2017-02-01T00:30:00Z,30.3288,-87.8293,1.894,11.0,1111122 
DISL,ioos:station:DISL:BSCA:1,2017-02-01T01:00:00Z,30.3288,-87.8293,1.906,11.03,1111122 
DISL,ioos:station:DISL:BSCA:1,2017-02-01T01:30:00Z,30.3288,-87.8293,1.911,11.03,1111122 
DISL,ioos:station:DISL:BSCA:1,2017-02-01T02:00:00Z,30.3288,-87.8293,1.913,11.02,1111122 
DISL,ioos:station:DISL:BSCA:1,2017-02-01T02:30:00Z,30.3288,-87.8293,1.913,10.98,1111122 
DISL,ioos:station:DISL:BSCA:1,2017-02-01T03:00:00Z,30.3288,-87.8293,1.927,11.04,1111122 
DISL,ioos:station:DISL:BSCA:1,2017-02-01T03:30:00Z,30.3288,-87.8293,1.932,10.95,1111122 
DISL,ioos:station:DISL:BSCA:1,2017-02-01T04:00:00Z,30.3288,-87.8293,1.961,10.91,1111122 
DISL,ioos:station:DISL:BSCA:1,2017-02-01T04:30:00Z,30.3288,-87.8293,1.967,10.92,1111122 
DISL,ioos:station:DISL:BSCA:1,2017-02-01T05:00:00Z,30.3288,-87.8293,1.97,10.88,1111122 
DISL,ioos:station:DISL:BSCA:1,2017-02-01T05:30:00Z,30.3288,-87.8293,1.978,10.86,1111122 
DISL,ioos:station:DISL:BSCA:1,2017-02-01T06:00:00Z,30.3288,-87.8293,1.984,10.75,1111122 
DISL,ioos:station:DISL:BSCA:1,2017-02-01T06:30:00Z,30.3288,-87.8293,1.985,10.78,1111122 
DISL,ioos:station:DISL:BSCA:1,2017-02-01T07:00:00Z,30.3288,-87.8293,1.984,10.83,1111122 
DISL,ioos:station:DISL:BSCA:1,2017-02-01T07:30:00Z,30.3288,-87.8293,1.982,10.82,1111122 
DISL,ioos:station:DISL:BSCA:1,2017-02-01T08:00:00Z,30.3288,-87.8293,1.979,10.74,1111122 
DISL,ioos:station:DISL:BSCA:1,2017-02-01T08:30:00Z,30.3288,-87.8293,1.967,10.67,1111122 
DISL,ioos:station:DISL:BSCA:1,2017-02-01T09:00:00Z,30.3288,-87.8293,1.952,10.66,1111122 
DISL,ioos:station:DISL:BSCA:1,2017-02-01T09:30:00Z,30.3288,-87.8293,1.933,10.66,1111122 
DISL,ioos:station:DISL:BSCA:1,2017-02-01T10:00:00Z,30.3288,-87.8293,1.917,10.64,1111122 
DISL,ioos:station:DISL:BSCA:1,2017-02-01T10:30:00Z,30.3288,-87.8293,1.909,10.5,1111122 
DISL,ioos:station:DISL:BSCA:1,2017-02-01T11:00:00Z,30.3288,-87.8293,1.886,10.4,1111122 
DISL,ioos:station:DISL:BSCA:1,2017-02-01T11:30:00Z,30.3288,-87.8293,1.862,10.48,1111122 
DISL,ioos:station:DISL:BSCA:1,2017-02-01T12:00:00Z,30.3288,-87.8293,1.845,10.54,1111122 
DISL,ioos:station:DISL:BSCA:1,2017-02-01T12:30:00Z,30.3288,-87.8293,1.811,10.62,1111122 
DISL,ioos:station:DISL:BSCA:1,2017-02-01T13:00:00Z,30.3288,-87.8293,1.801,10.58,1111122 
DISL,ioos:station:DISL:BSCA:1,2017-02-01T13:30:00Z,30.3288,-87.8293,1.78,10.65,1111122 
DISL,ioos:station:DISL:BSCA:1,2017-02-01T14:00:00Z,30.3288,-87.8293,1.779,10.69,1111122 
DISL,ioos:station:DISL:BSCA:1,2017-02-01T14:30:00Z,30.3288,-87.8293,1.766,10.82,1111122 
DISL,ioos:station:DISL:BSCA:1,2017-02-01T15:00:00Z,30.3288,-87.8293,1.76,10.78,1111122 
DISL,ioos:station:DISL:BSCA:1,2017-02-01T15:30:00Z,30.3288,-87.8293,1.767,10.79,1111122 
DISL,ioos:station:DISL:BSCA:1,2017-02-01T16:00:00Z,30.3288,-87.8293,1.767,10.8,1111122 
DISL,ioos:station:DISL:BSCA:1,2017-02-01T16:30:00Z,30.3288,-87.8293,1.776,10.84,1111122 
DISL,ioos:station:DISL:BSCA:1,2017-02-01T17:00:00Z,30.3288,-87.8293,1.783,10.7,1111122 
DISL,ioos:station:DISL:BSCA:1,2017-02-01T17:30:00Z,30.3288,-87.8293,1.801,10.71,1111122 
DISL,ioos:station:DISL:BSCA:1,2017-02-01T18:00:00Z,30.3288,-87.8293,1.81,10.63,1111122 
DISL,ioos:station:DISL:BSCA:1,2017-02-01T18:30:00Z,30.3288,-87.8293,1.836,10.67,1111122 
DISL,ioos:station:DISL:BSCA:1,2017-02-01T19:00:00Z,30.3288,-87.8293,1.846,10.65,1111122 
DISL,ioos:station:DISL:BSCA:1,2017-02-01T19:30:00Z,30.3288,-87.8293,1.871,10.57,1111122 
DISL,ioos:station:DISL:BSCA:1,2017-02-01T20:00:00Z,30.3288,-87.8293,1.887,10.55,1111122 
DISL,ioos:station:DISL:BSCA:1,2017-02-01T20:30:00Z,30.3288,-87.8293,1.905,10.52,1111122 
DISL,ioos:station:DISL:BSCA:1,2017-02-01T21:00:00Z,30.3288,-87.8293,1.918,10.61,1111122 
DISL,ioos:station:DISL:BSCA:1,2017-02-01T21:30:00Z,30.3288,-87.8293,1.926,10.24,1111122 
DISL,ioos:station:DISL:BSCA:1,2017-02-01T22:00:00Z,30.3288,-87.8293,1.942,10.18,1111122 
DISL,ioos:station:DISL:BSCA:1,2017-02-01T22:30:00Z,30.3288,-87.8293,1.95,10.38,1111122 
DISL,ioos:station:DISL:BSCA:1,2017-02-01T23:00:00Z,30.3288,-87.8293,1.964,10.49,1111122 
DISL,ioos:station:DISL:BSCA:1,2017-02-01T23:30:00Z,30.3288,-87.8293,1.958,10.4,1111122 
DISL,ioos:station:DISL:BSCA:1,2017-02-02T00:00:00Z,30.3288,-87.8293,1.954,10.4,1111122 
DISL,ioos:station:DISL:BSCA:1,2017-02-02T00:30:00Z,30.3288,-87.8293,1.938,10.86,1111122 
DISL,ioos:station:DISL:BSCA:1,2017-02-02T01:00:00Z,30.3288,-87.8293,1.928,10.42,1111122 
DISL,ioos:station:DISL:BSCA:1,2017-02-02T01:30:00Z,30.3288,-87.8293,1.914,10.83,1111122 
DISL,ioos:station:DISL:BSCA:1,2017-02-02T02:00:00Z,30.3288,-87.8293,1.911,10.58,1111122 
DISL,ioos:station:DISL:BSCA:1,2017-02-02T02:30:00Z,30.3288,-87.8293,1.908,11.6,1111122 
DISL,ioos:station:DISL:BSCA:1,2017-02-02T03:00:00Z,30.3288,-87.8293,1.907,11.82,1111122 
DISL,ioos:station:DISL:BSCA:1,2017-02-02T03:30:00Z,30.3288,-87.8293,1.906,11.78,1111122 
DISL,ioos:station:DISL:BSCA:1,2017-02-02T04:00:00Z,30.3288,-87.8293,1.896,11.74,1111122 
DISL,ioos:station:DISL:BSCA:1,2017-02-02T04:30:00Z,30.3288,-87.8293,1.897,11.77,1111122 
DISL,ioos:station:DISL:BSCA:1,2017-02-02T05:00:00Z,30.3288,-87.8293,1.896,11.7,1111122 
DISL,ioos:station:DISL:BSCA:1,2017-02-02T05:30:00Z,30.3288,-87.8293,1.903,11.71,1111122 
DISL,ioos:station:DISL:BSCA:1,2017-02-02T06:00:00Z,30.3288,-87.8293,1.902,11.69,1111122 
DISL,ioos:station:DISL:BSCA:1,2017-02-02T06:30:00Z,30.3288,-87.8293,1.912,11.68,1111122 
DISL,ioos:station:DISL:BSCA:1,2017-02-02T07:00:00Z,30.3288,-87.8293,1.901,11.67,1111122 
DISL,ioos:station:DISL:BSCA:1,2017-02-02T07:30:00Z,30.3288,-87.8293,1.899,11.68,1111122 
DISL,ioos:station:DISL:BSCA:1,2017-02-02T08:00:00Z,30.3288,-87.8293,1.887,11.47,1111122 
DISL,ioos:station:DISL:BSCA:1,2017-02-02T08:30:00Z,30.3288,-87.8293,1.908,11.59,1111122 
DISL,ioos:station:DISL:BSCA:1,2017-02-02T09:00:00Z,30.3288,-87.8293,1.917,11.64,1111122 
DISL,ioos:station:DISL:BSCA:1,2017-02-02T09:30:00Z,30.3288,-87.8293,1.905,11.66,1111122 
DISL,ioos:station:DISL:BSCA:1,2017-02-02T10:00:00Z,30.3288,-87.8293,1.899,11.78,1111122 
DISL,ioos:station:DISL:BSCA:1,2017-02-02T10:30:00Z,30.3288,-87.8293,1.898,11.82,1111122 
DISL,ioos:station:DISL:BSCA:1,2017-02-02T11:00:00Z,30.3288,-87.8293,1.89,11.43,1111122 
DISL,ioos:station:DISL:BSCA:1,2017-02-02T11:30:00Z,30.3288,-87.8293,1.871,10.68,1111122 
DISL,ioos:station:DISL:BSCA:1,2017-02-02T12:00:00Z,30.3288,-87.8293,1.861,9.62,1111122 
DISL,ioos:station:DISL:BSCA:1,2017-02-02T12:30:00Z,30.3288,-87.8293,1.847,9.57,1111122 
DISL,ioos:station:DISL:BSCA:1,2017-02-02T13:00:00Z,30.3288,-87.8293,1.83,9.7,1111122 
DISL,ioos:station:DISL:BSCA:1,2017-02-02T13:30:00Z,30.3288,-87.8293,1.829,9.75,1111122 
DISL,ioos:station:DISL:BSCA:1,2017-02-02T14:00:00Z,30.3288,-87.8293,1.811,9.88,1111122 
DISL,ioos:station:DISL:BSCA:1,2017-02-02T14:30:00Z,30.3288,-87.8293,1.806,9.83,1111122 
DISL,ioos:station:DISL:BSCA:1,2017-02-02T15:00:00Z,30.3288,-87.8293,1.813,9.83,1111122 
DISL,ioos:station:DISL:BSCA:1,2017-02-02T15:30:00Z,30.3288,-87.8293,1.829,9.96,1111122 
DISL,ioos:station:DISL:BSCA:1,2017-02-02T16:00:00Z,30.3288,-87.8293,1.837,9.82,1111122 
DISL,ioos:station:DISL:BSCA:1,2017-02-02T16:30:00Z,30.3288,-87.8293,1.848,10.06,1111122 
DISL,ioos:station:DISL:BSCA:1,2017-02-02T17:00:00Z,30.3288,-87.8293,1.857,10.16,1111122 
DISL,ioos:station:DISL:BSCA:1,2017-02-02T17:30:00Z,30.3288,-87.8293,1.867,10.35,1111122 
DISL,ioos:station:DISL:BSCA:1,2017-02-02T18:00:00Z,30.3288,-87.8293,1.883,9.68,1111122 
DISL,ioos:station:DISL:BSCA:1,2017-02-02T18:30:00Z,30.3288,-87.8293,1.893,9.77,1111122 
DISL,ioos:station:DISL:BSCA:1,2017-02-02T19:00:00Z,30.3288,-87.8293,1.905,10.4,1111122 
DISL,ioos:station:DISL:BSCA:1,2017-02-02T19:30:00Z,30.3288,-87.8293,1.924,10.87,1111122 
DISL,ioos:station:DISL:BSCA:1,2017-02-02T20:00:00Z,30.3288,-87.8293,1.928,11.09,1111122 
DISL,ioos:station:DISL:BSCA:1,2017-02-02T20:30:00Z,30.3288,-87.8293,1.951,11.45,1111122 
DISL,ioos:station:DISL:BSCA:1,2017-02-02T21:00:00Z,30.3288,-87.8293,1.965,10.85,1111122 
DISL,ioos:station:DISL:BSCA:1,2017-02-02T21:30:00Z,30.3288,-87.8293,1.966,11.0,1111122 
DISL,ioos:station:DISL:BSCA:1,2017-02-02T22:00:00Z,30.3288,-87.8293,1.977,10.84,1111122 
DISL,ioos:station:DISL:BSCA:1,2017-02-02T22:30:00Z,30.3288,-87.8293,1.984,11.36,1111122 
DISL,ioos:station:DISL:BSCA:1,2017-02-02T23:00:00Z,30.3288,-87.8293,1.991,11.8,1111122 
DISL,ioos:station:DISL:BSCA:1,2017-02-02T23:30:00Z,30.3288,-87.8293,1.988,12.65,1111122 
DISL,ioos:station:DISL:BSCA:1,2017-02-03T00:00:00Z,30.3288,-87.8293,1.978,11.61,1111122 
DISL,ioos:station:DISL:BSCA:1,2017-02-03T00:30:00Z,30.3288,-87.8293,1.969,13.01,1111122 
DISL,ioos:station:DISL:BSCA:1,2017-02-03T01:00:00Z,30.3288,-87.8293,1.959,13.07,1111122 
DISL,ioos:station:DISL:BSCA:1,2017-02-03T01:30:00Z,30.3288,-87.8293,1.92,13.04,1111122 
DISL,ioos:station:DISL:BSCA:1,2017-02-03T02:00:00Z,30.3288,-87.8293,1.917,13.06,1111122 
DISL,ioos:station:DISL:BSCA:1,2017-02-03T02:30:00Z,30.3288,-87.8293,1.903,13.09,1111122 
DISL,ioos:station:DISL:BSCA:1,2017-02-03T03:00:00Z,30.3288,-87.8293,1.875,12.91,1111122 
DISL,ioos:station:DISL:BSCA:1,2017-02-03T03:30:00Z,30.3288,-87.8293,1.863,12.79,1111122 
DISL,ioos:station:DISL:BSCA:1,2017-02-03T04:00:00Z,30.3288,-87.8293,1.856,12.73,1111122 
DISL,ioos:station:DISL:BSCA:1,2017-02-03T04:30:00Z,30.3288,-87.8293,1.863,12.79,1111122 
DISL,ioos:station:DISL:BSCA:1,2017-02-03T05:00:00Z,30.3288,-87.8293,1.858,12.77,1111122 
DISL,ioos:station:DISL:BSCA:1,2017-02-03T05:30:00Z,30.3288,-87.8293,1.854,11.9,1111122 
DISL,ioos:station:DISL:BSCA:1,2017-02-03T06:00:00Z,30.3288,-87.8293,1.842,11.93,1111122 
DISL,ioos:station:DISL:BSCA:1,2017-02-03T06:30:00Z,30.3288,-87.8293,1.833,11.8,1111122 
DISL,ioos:station:DISL:BSCA:1,2017-02-03T07:00:00Z,30.3288,-87.8293,1.815,12.25,1111122 
DISL,ioos:station:DISL:BSCA:1,2017-02-03T07:30:00Z,30.3288,-87.8293,1.815,12.1,1111122 
DISL,ioos:station:DISL:BSCA:1,2017-02-03T08:00:00Z,30.3288,-87.8293,1.803,12.35,1111122 
DISL,ioos:station:DISL:BSCA:1,2017-02-03T08:30:00Z,30.3288,-87.8293,1.808,12.37,1111122 
DISL,ioos:station:DISL:BSCA:1,2017-02-03T09:00:00Z,30.3288,-87.8293,1.824,12.47,1111122 
DISL,ioos:station:DISL:BSCA:1,2017-02-03T09:30:00Z,30.3288,-87.8293,1.836,12.43,1111122 
DISL,ioos:station:DISL:BSCA:1,2017-02-03T10:00:00Z,30.3288,-87.8293,1.845,12.54,1111122 
DISL,ioos:station:DISL:BSCA:1,2017-02-03T10:30:00Z,30.3288,-87.8293,1.848,11.47,1111122 
DISL,ioos:station:DISL:BSCA:1,2017-02-03T11:00:00Z,30.3288,-87.8293,1.844,10.77,1111122 
DISL,ioos:station:DISL:BSCA:1,2017-02-03T11:30:00Z,30.3288,-87.8293,1.832,9.98,1111122 
DISL,ioos:station:DISL:BSCA:1,2017-02-03T12:00:00Z,30.3288,-87.8293,1.836,9.68,1111122 
DISL,ioos:station:DISL:BSCA:1,2017-02-03T12:30:00Z,30.3288,-87.8293,1.838,9.86,1111122 
DISL,ioos:station:DISL:BSCA:1,2017-02-03T13:00:00Z,30.3288,-87.8293,1.836,10.11,1111122 
DISL,ioos:station:DISL:BSCA:1,2017-02-03T13:30:00Z,30.3288,-87.8293,1.841,9.91,1111122 
DISL,ioos:station:DISL:BSCA:1,2017-02-03T14:00:00Z,30.3288,-87.8293,1.851,10.18,1111122 
DISL,ioos:station:DISL:BSCA:1,2017-02-03T14:30:00Z,30.3288,-87.8293,1.87,10.25,1111122 
DISL,ioos:station:DISL:BSCA:1,2017-02-03T15:00:00Z,30.3288,-87.8293,1.869,9.96,1111122 
DISL,ioos:station:DISL:BSCA:1,2017-02-03T15:30:00Z,30.3288,-87.8293,1.872,9.88,1111122 
DISL,ioos:station:DISL:BSCA:1,2017-02-03T16:00:00Z,30.3288,-87.8293,1.879,10.96,1111122 
DISL,ioos:station:DISL:BSCA:1,2017-02-03T16:30:00Z,30.3288,-87.8293,1.905,10.92,1111122 
DISL,ioos:station:DISL:BSCA:1,2017-02-03T17:00:00Z,30.3288,-87.8293,1.908,10.96,1111122 
DISL,ioos:station:DISL:BSCA:1,2017-02-03T17:30:00Z,30.3288,-87.8293,1.975,10.61,1111122 
DISL,ioos:station:DISL:BSCA:1,2017-02-03T18:00:00Z,30.3288,-87.8293,1.958,10.51,1111122 
DISL,ioos:station:DISL:BSCA:1,2017-02-03T18:30:00Z,30.3288,-87.8293,1.978,9.41,1111122 
DISL,ioos:station:DISL:BSCA:1,2017-02-03T19:00:00Z,30.3288,-87.8293,1.944,9.62,1111122 
DISL,ioos:station:DISL:BSCA:1,2017-02-03T19:30:00Z,30.3288,-87.8293,1.908,10.18,1111122 
DISL,ioos:station:DISL:BSCA:1,2017-02-03T20:00:00Z,30.3288,-87.8293,1.892,10.75,1111122 
DISL,ioos:station:DISL:BSCA:1,2017-02-03T20:30:00Z,30.3288,-87.8293,1.886,10.06,1111122 
DISL,ioos:station:DISL:BSCA:1,2017-02-03T21:00:00Z,30.3288,-87.8293,1.986,9.76,1111122 
DISL,ioos:station:DISL:BSCA:1,2017-02-03T21:30:00Z,30.3288,-87.8293,1.924,9.42,1111122 
DISL,ioos:station:DISL:BSCA:1,2017-02-03T22:00:00Z,30.3288,-87.8293,1.914,9.21,1111122 
DISL,ioos:station:DISL:BSCA:1,2017-02-03T22:30:00Z,30.3288,-87.8293,1.897,9.54,1111122 
DISL,ioos:station:DISL:BSCA:1,2017-02-03T23:00:00Z,30.3288,-87.8293,1.878,10.58,1111122 
DISL,ioos:station:DISL:BSCA:1,2017-02-03T23:30:00Z,30.3288,-87.8293,1.861,10.61,1111122 
DISL,ioos:station:DISL:BSCA:1,2017-02-04T00:00:00Z,30.3288,-87.8293,1.856,10.51,1111122 
DISL,ioos:station:DISL:BSCA:1,2017-02-04T00:30:00Z,30.3288,-87.8293,1.838,10.72,1111122 
DISL,ioos:station:DISL:BSCA:1,2017-02-04T01:00:00Z,30.3288,-87.8293,1.837,10.17,1111122 
DISL,ioos:station:DISL:BSCA:1,2017-02-04T01:30:00Z,30.3288,-87.8293,1.792,10.43,1111122 
DISL,ioos:station:DISL:BSCA:1,2017-02-04T02:00:00Z,30.3288,-87.8293,1.77,10.6,1111122 
DISL,ioos:station:DISL:BSCA:1,2017-02-04T02:30:00Z,30.3288,-87.8293,1.744,11.01,1111122 
DISL,ioos:station:DISL:BSCA:1,2017-02-04T03:00:00Z,30.3288,-87.8293,1.722,10.64,1111122 
DISL,ioos:station:DISL:BSCA:1,2017-02-04T03:30:00Z,30.3288,-87.8293,1.722,11.12,1111122 
DISL,ioos:station:DISL:BSCA:1,2017-02-04T04:00:00Z,30.3288,-87.8293,1.735,10.61,1111122 
DISL,ioos:station:DISL:BSCA:1,2017-02-04T04:30:00Z,30.3288,-87.8293,1.72,10.53,1111122 
DISL,ioos:station:DISL:BSCA:1,2017-02-04T05:00:00Z,30.3288,-87.8293,1.709,10.7,1111122 
DISL,ioos:station:DISL:BSCA:1,2017-02-04T05:30:00Z,30.3288,-87.8293,1.678,10.31,1111122 
DISL,ioos:station:DISL:BSCA:1,2017-02-04T06:00:00Z,30.3288,-87.8293,1.671,10.84,1111122 
DISL,ioos:station:DISL:BSCA:1,2017-02-04T06:30:00Z,30.3288,-87.8293,1.629,10.21,1111122 
DISL,ioos:station:DISL:BSCA:1,2017-02-04T07:00:00Z,30.3288,-87.8293,1.605,10.35,1111122 
DISL,ioos:station:DISL:BSCA:1,2017-02-04T07:30:00Z,30.3288,-87.8293,1.572,10.69,1111122 
DISL,ioos:station:DISL:BSCA:1,2017-02-04T08:00:00Z,30.3288,-87.8293,1.546,10.74,1111122 
DISL,ioos:station:DISL:BSCA:1,2017-02-04T08:30:00Z,30.3288,-87.8293,1.531,10.86,1111122 
DISL,ioos:station:DISL:BSCA:1,2017-02-04T09:00:00Z,30.3288,-87.8293,1.521,10.6,1111122 
DISL,ioos:station:DISL:BSCA:1,2017-02-04T09:30:00Z,30.3288,-87.8293,1.518,10.56,1111122 
DISL,ioos:station:DISL:BSCA:1,2017-02-04T10:00:00Z,30.3288,-87.8293,1.528,10.74,1111122 
DISL,ioos:station:DISL:BSCA:1,2017-02-04T10:30:00Z,30.3288,-87.8293,1.544,10.67,1111122 
DISL,ioos:station:DISL:BSCA:1,2017-02-04T11:00:00Z,30.3288,-87.8293,1.555,10.46,1111122 
DISL,ioos:station:DISL:BSCA:1,2017-02-04T11:30:00Z,30.3288,-87.8293,1.548,10.5,1111122 
DISL,ioos:station:DISL:BSCA:1,2017-02-04T12:00:00Z,30.3288,-87.8293,1.551,10.3,1111122 
DISL,ioos:station:DISL:BSCA:1,2017-02-04T12:30:00Z,30.3288,-87.8293,1.551,10.29,1111122 
DISL,ioos:station:DISL:BSCA:1,2017-02-04T13:00:00Z,30.3288,-87.8293,1.557,9.62,1111122 
DISL,ioos:station:DISL:BSCA:1,2017-02-04T13:30:00Z,30.3288,-87.8293,1.568,8.88,1111122 
DISL,ioos:station:DISL:BSCA:1,2017-02-04T14:00:00Z,30.3288,-87.8293,1.579,9.47,1111122 
DISL,ioos:station:DISL:BSCA:1,2017-02-04T14:30:00Z,30.3288,-87.8293,1.592,9.61,1111122 
DISL,ioos:station:DISL:BSCA:1,2017-02-04T15:00:00Z,30.3288,-87.8293,1.634,9.98,1111122 
DISL,ioos:station:DISL:BSCA:1,2017-02-04T15:30:00Z,30.3288,-87.8293,1.661,10.25,1111122 
DISL,ioos:station:DISL:BSCA:1,2017-02-04T16:00:00Z,30.3288,-87.8293,1.713,9.46,1111122 
DISL,ioos:station:DISL:BSCA:1,2017-02-04T16:30:00Z,30.3288,-87.8293,1.744,8.57,1111122 
DISL,ioos:station:DISL:BSCA:1,2017-02-04T17:00:00Z,30.3288,-87.8293,1.78,8.19,1111122 
DISL,ioos:station:DISL:BSCA:1,2017-02-04T17:30:00Z,30.3288,-87.8293,1.81,7.11,1111122 
DISL,ioos:station:DISL:BSCA:1,2017-02-04T18:00:00Z,30.3288,-87.8293,1.84,7.05,1111122 
DISL,ioos:station:DISL:BSCA:1,2017-02-04T18:30:00Z,30.3288,-87.8293,1.874,7.3,1111122 
DISL,ioos:station:DISL:BSCA:1,2017-02-04T19:00:00Z,30.3288,-87.8293,1.895,7.52,1111122 
DISL,ioos:station:DISL:BSCA:1,2017-02-04T19:30:00Z,30.3288,-87.8293,1.932,8.75,1111122 
DISL,ioos:station:DISL:BSCA:1,2017-02-04T20:00:00Z,30.3288,-87.8293,1.952,9.29,1111122 
DISL,ioos:station:DISL:BSCA:1,2017-02-04T20:30:00Z,30.3288,-87.8293,1.985,8.86,1111122 
DISL,ioos:station:DISL:BSCA:1,2017-02-04T21:00:00Z,30.3288,-87.8293,2.005,8.78,1111122 
DISL,ioos:station:DISL:BSCA:1,2017-02-04T21:30:00Z,30.3288,-87.8293,2.025,7.11,1111122 
DISL,ioos:station:DISL:BSCA:1,2017-02-04T22:00:00Z,30.3288,-87.8293,2.036,8.46,1111122 
DISL,ioos:station:DISL:BSCA:1,2017-02-04T22:30:00Z,30.3288,-87.8293,2.038,9.48,1111122 
DISL,ioos:station:DISL:BSCA:1,2017-02-04T23:00:00Z,30.3288,-87.8293,2.044,9.72,1111122 
DISL,ioos:station:DISL:BSCA:1,2017-02-04T23:30:00Z,30.3288,-87.8293,2.035,9.37,1111122 
DISL,ioos:station:DISL:BSCA:1,2017-02-05T00:00:00Z,30.3288,-87.8293,2.028,9.56,1111122 
DISL,ioos:station:DISL:BSCA:1,2017-02-05T00:30:00Z,30.3288,-87.8293,2.017,9.21,1111122 
DISL,ioos:station:DISL:BSCA:1,2017-02-05T01:00:00Z,30.3288,-87.8293,2.004,9.17,1111122 
DISL,ioos:station:DISL:BSCA:1,2017-02-05T01:30:00Z,30.3288,-87.8293,1.981,8.97,1111122 
DISL,ioos:station:DISL:BSCA:1,2017-02-05T02:00:00Z,30.3288,-87.8293,1.955,8.45,1111122 
DISL,ioos:station:DISL:BSCA:1,2017-02-05T02:30:00Z,30.3288,-87.8293,1.928,8.34,1111122 
DISL,ioos:station:DISL:BSCA:1,2017-02-05T03:00:00Z,30.3288,-87.8293,1.893,7.61,1111122 
DISL,ioos:station:DISL:BSCA:1,2017-02-05T03:30:00Z,30.3288,-87.8293,1.873,6.74,1111122 
DISL,ioos:station:DISL:BSCA:1,2017-02-05T04:00:00Z,30.3288,-87.8293,1.845,7.04,1111122 
DISL,ioos:station:DISL:BSCA:1,2017-02-05T04:30:00Z,30.3288,-87.8293,1.826,7.09,1111122 
DISL,ioos:station:DISL:BSCA:1,2017-02-05T05:00:00Z,30.3288,-87.8293,1.8,6.49,1111122 
DISL,ioos:station:DISL:BSCA:1,2017-02-05T05:30:00Z,30.3288,-87.8293,1.778,6.58,1111122 
DISL,ioos:station:DISL:BSCA:1,2017-02-05T06:00:00Z,30.3288,-87.8293,1.741,7.51,1111122 
DISL,ioos:station:DISL:BSCA:1,2017-02-05T06:30:00Z,30.3288,-87.8293,1.712,7.12,1111122 
DISL,ioos:station:DISL:BSCA:1,2017-02-05T07:00:00Z,30.3288,-87.8293,1.686,6.91,1111122 
DISL,ioos:station:DISL:BSCA:1,2017-02-05T07:30:00Z,30.3288,-87.8293,1.662,7.59,1111122 
DISL,ioos:station:DISL:BSCA:1,2017-02-05T08:00:00Z,30.3288,-87.8293,1.642,7.82,1111122 
DISL,ioos:station:DISL:BSCA:1,2017-02-05T08:30:00Z,30.3288,-87.8293,1.626,7.89,1111122 
DISL,ioos:station:DISL:BSCA:1,2017-02-05T09:00:00Z,30.3288,-87.8293,1.614,8.18,1111122 
DISL,ioos:station:DISL:BSCA:1,2017-02-05T09:30:00Z,30.3288,-87.8293,1.614,8.56,1111122 
DISL,ioos:station:DISL:BSCA:1,2017-02-05T10:00:00Z,30.3288,-87.8293,1.621,8.47,1111122 
DISL,ioos:station:DISL:BSCA:1,2017-02-05T10:30:00Z,30.3288,-87.8293,1.614,9.42,1111122 
DISL,ioos:station:DISL:BSCA:1,2017-02-05T11:00:00Z,30.3288,-87.8293,1.622,9.79,1111122 
DISL,ioos:station:DISL:BSCA:1,2017-02-05T11:30:00Z,30.3288,-87.8293,1.632,10.07,1111122 
DISL,ioos:station:DISL:BSCA:1,2017-02-05T12:00:00Z,30.3288,-87.8293,1.644,10.08,1111122 
DISL,ioos:station:DISL:BSCA:1,2017-02-05T12:30:00Z,30.3288,-87.8293,1.685,9.91,1111122 
DISL,ioos:station:DISL:BSCA:1,2017-02-05T13:00:00Z,30.3288,-87.8293,1.685,9.56,1111122 
DISL,ioos:station:DISL:BSCA:1,2017-02-05T13:30:00Z,30.3288,-87.8293,1.715,9.94,1111122 
DISL,ioos:station:DISL:BSCA:1,2017-02-05T14:00:00Z,30.3288,-87.8293,1.745,9.49,1111122 
DISL,ioos:station:DISL:BSCA:1,2017-02-05T14:30:00Z,30.3288,-87.8293,1.783,9.7,1111122 
DISL,ioos:station:DISL:BSCA:1,2017-02-05T15:00:00Z,30.3288,-87.8293,1.817,9.24,1111122 
DISL,ioos:station:DISL:BSCA:1,2017-02-05T15:30:00Z,30.3288,-87.8293,1.823,8.62,1111122 
DISL,ioos:station:DISL:BSCA:1,2017-02-05T16:00:00Z,30.3288,-87.8293,1.847,7.58,1111122 
DISL,ioos:station:DISL:BSCA:1,2017-02-05T16:30:00Z,30.3288,-87.8293,1.868,8.44,1111122 
DISL,ioos:station:DISL:BSCA:1,2017-02-05T17:00:00Z,30.3288,-87.8293,1.88,8.07,1111122 
DISL,ioos:station:DISL:BSCA:1,2017-02-05T17:30:00Z,30.3288,-87.8293,1.895,7.73,1111122 
DISL,ioos:station:DISL:BSCA:1,2017-02-05T18:00:00Z,30.3288,-87.8293,1.907,7.77,1111122 
DISL,ioos:station:DISL:BSCA:1,2017-02-05T18:30:00Z,30.3288,-87.8293,1.925,10.06,1111122 
DISL,ioos:station:DISL:BSCA:1,2017-02-05T19:00:00Z,30.3288,-87.8293,1.959,10.6,1111122 
DISL,ioos:station:DISL:BSCA:1,2017-02-05T19:30:00Z,30.3288,-87.8293,1.983,10.05,1111122 
DISL,ioos:station:DISL:BSCA:1,2017-02-05T20:00:00Z,30.3288,-87.8293,2.008,11.04,1111122 
DISL,ioos:station:DISL:BSCA:1,2017-02-05T20:30:00Z,30.3288,-87.8293,2.025,11.09,1111122 
DISL,ioos:station:DISL:BSCA:1,2017-02-05T21:00:00Z,30.3288,-87.8293,2.032,11.29,1111122 
DISL,ioos:station:DISL:BSCA:1,2017-02-05T21:30:00Z,30.3288,-87.8293,2.043,11.45,1111122 
DISL,ioos:station:DISL:BSCA:1,2017-02-05T22:00:00Z,30.3288,-87.8293,2.043,11.6,1111122 
DISL,ioos:station:DISL:BSCA:1,2017-02-05T22:30:00Z,30.3288,-87.8293,2.056,8.55,1111122 
DISL,ioos:station:DISL:BSCA:1,2017-02-05T23:00:00Z,30.3288,-87.8293,2.067,9.17,1111122 
DISL,ioos:station:DISL:BSCA:1,2017-02-05T23:30:00Z,30.3288,-87.8293,2.052,8.67,1111122 
DISL,ioos:station:DISL:BSCA:1,2017-02-06T00:00:00Z,30.3288,-87.8293,2.047,9.94,1111122 
DISL,ioos:station:DISL:BSCA:1,2017-02-06T00:30:00Z,30.3288,-87.8293,2.037,8.0,1111122 
DISL,ioos:station:DISL:BSCA:1,2017-02-06T01:00:00Z,30.3288,-87.8293,2.026,8.84,1111122 
DISL,ioos:station:DISL:BSCA:1,2017-02-06T01:30:00Z,30.3288,-87.8293,2.007,10.01,1111122 
DISL,ioos:station:DISL:BSCA:1,2017-02-06T02:00:00Z,30.3288,-87.8293,1.986,9.89,1111122 
DISL,ioos:station:DISL:BSCA:1,2017-02-06T02:30:00Z,30.3288,-87.8293,1.963,9.23,1111122 
DISL,ioos:station:DISL:BSCA:1,2017-02-06T03:00:00Z,30.3288,-87.8293,1.941,9.75,1111122 
DISL,ioos:station:DISL:BSCA:1,2017-02-06T03:30:00Z,30.3288,-87.8293,1.901,9.12,1111122 
DISL,ioos:station:DISL:BSCA:1,2017-02-06T04:00:00Z,30.3288,-87.8293,1.865,8.04,1111122 
DISL,ioos:station:DISL:BSCA:1,2017-02-06T04:30:00Z,30.3288,-87.8293,1.859,7.47,1111122 
DISL,ioos:station:DISL:BSCA:1,2017-02-06T05:00:00Z,30.3288,-87.8293,1.821,5.46,1111122 
DISL,ioos:station:DISL:BSCA:1,2017-02-06T05:30:00Z,30.3288,-87.8293,1.79,6.05,1111122 
DISL,ioos:station:DISL:BSCA:1,2017-02-06T06:00:00Z,30.3288,-87.8293,1.756,5.18,1111122 
DISL,ioos:station:DISL:BSCA:1,2017-02-06T06:30:00Z,30.3288,-87.8293,1.726,4.27,1111122 
DISL,ioos:station:DISL:BSCA:1,2017-02-06T07:00:00Z,30.3288,-87.8293,1.689,5.03,1111122 
DISL,ioos:station:DISL:BSCA:1,2017-02-06T07:30:00Z,30.3288,-87.8293,1.655,5.57,1111122 
DISL,ioos:station:DISL:BSCA:1,2017-02-06T08:00:00Z,30.3288,-87.8293,1.629,6.35,1111122 
DISL,ioos:station:DISL:BSCA:1,2017-02-06T08:30:00Z,30.3288,-87.8293,1.607,6.21,1111122 
DISL,ioos:station:DISL:BSCA:1,2017-02-06T09:00:00Z,30.3288,-87.8293,1.589,5.45,1111122 
DISL,ioos:station:DISL:BSCA:1,2017-02-06T09:30:00Z,30.3288,-87.8293,1.578,5.72,1111122 
DISL,ioos:station:DISL:BSCA:1,2017-02-06T10:00:00Z,30.3288,-87.8293,1.567,5.64,1111122 
DISL,ioos:station:DISL:BSCA:1,2017-02-06T10:30:00Z,30.3288,-87.8293,1.558,7.26,1111122 
DISL,ioos:station:DISL:BSCA:1,2017-02-06T11:00:00Z,30.3288,-87.8293,1.547,8.05,1111122 
DISL,ioos:station:DISL:BSCA:1,2017-02-06T11:30:00Z,30.3288,-87.8293,1.542,5.98,1111122 
DISL,ioos:station:DISL:BSCA:1,2017-02-06T12:00:00Z,30.3288,-87.8293,1.542,7.2,1111122 
DISL,ioos:station:DISL:BSCA:1,2017-02-06T12:30:00Z,30.3288,-87.8293,1.559,6.09,1111122 
DISL,ioos:station:DISL:BSCA:1,2017-02-06T13:00:00Z,30.3288,-87.8293,1.578,6.47,1111122 
DISL,ioos:station:DISL:BSCA:1,2017-02-06T13:30:00Z,30.3288,-87.8293,1.603,6.65,1111122 
DISL,ioos:station:DISL:BSCA:1,2017-02-06T14:00:00Z,30.3288,-87.8293,1.644,6.81,1111122 
DISL,ioos:station:DISL:BSCA:1,2017-02-06T14:30:00Z,30.3288,-87.8293,1.68,5.03,1111122 